Location: Kra?nica
(53.4833°N, 14.6167°E)
Time: 20:12:01
(UTC+00:00)

Cosmos 1953 - Pass Details

Date: 23 May 2024
Orbit: 510 x 531 km, 82.5° (Epoch: 21 June)

Event Time Altitude Azimuth Distance (km) Brightness Sun altitude
Rises 00:58:27 0° 342° (NNW) 2,690 6.5 -11.5°
Reaches altitude 10° 01:00:45 10° 333° (NNW) 1,791 5.4 -11.3°
Maximum altitude 01:04:18 33° 268° (W) 912 3.2 -11.0°
Enters shadow 01:06:49 16° 212° (SSW) 1,425 3.8 -10.8°
